TimeHST,TemperatureF,Dew PointF,Humidity,Sea Level PressureIn,VisibilityMPH,Wind Direction,Wind SpeedMPH,Gust SpeedMPH,PrecipitationIn,Events,Conditions,WindDirDegrees,DateUTC
12:53 AM,73.0,70.0,90,30.06,9.0,ESE,5.8,-,0.01,Rain,Light Rain,120,2011-10-17 10:53:00
1:53 AM,73.0,69.1,87,30.04,10.0,NE,5.8,-,0.00,,Mostly Cloudy,40,2011-10-17 11:53:00
2:53 AM,73.0,68.0,84,30.02,10.0,NNE,4.6,-,0.00,,Mostly Cloudy,20,2011-10-17 12:53:00
3:53 AM,73.0,66.9,81,30.01,10.0,NE,3.5,-,0.00,,Mostly Cloudy,40,2011-10-17 13:53:00
4:53 AM,72.0,66.9,84,30.01,10.0,NNW,5.8,-,N/A,,Scattered Clouds,340,2011-10-17 14:53:00
5:53 AM,70.0,66.9,90,30.01,10.0,Variable,3.5,-,N/A,,Scattered Clouds,0,2011-10-17 15:53:00
6:53 AM,71.1,66.9,87,30.02,10.0,Calm,Calm,-,N/A,,Scattered Clouds,0,2011-10-17 16:53:00
7:53 AM,77.0,66.9,71,30.04,10.0,Calm,Calm,-,N/A,,Scattered Clouds,0,2011-10-17 17:53:00
8:53 AM,80.1,64.9,60,30.04,10.0,East,10.4,-,N/A,,Scattered Clouds,80,2011-10-17 18:53:00
9:53 AM,82.0,64.0,54,30.04,10.0,Variable,6.9,-,N/A,,Scattered Clouds,0,2011-10-17 19:53:00
10:53 AM,84.0,64.0,51,30.03,10.0,East,12.7,21.9,N/A,,Scattered Clouds,90,2011-10-17 20:53:00
11:53 AM,82.9,63.0,51,30.01,10.0,East,6.9,-,N/A,,Scattered Clouds,80,2011-10-17 21:53:00
12:53 PM,82.9,62.1,49,29.99,10.0,ENE,9.2,18.4,N/A,,Scattered Clouds,60,2011-10-17 22:53:00
1:53 PM,82.9,62.1,49,29.96,10.0,ENE,11.5,-,N/A,,Scattered Clouds,60,2011-10-17 23:53:00
2:53 PM,84.0,62.1,47,29.96,10.0,NE,9.2,-,N/A,,Scattered Clouds,40,2011-10-18 00:53:00
3:53 PM,82.9,63.0,51,29.96,10.0,NNE,11.5,-,N/A,,Scattered Clouds,30,2011-10-18 01:53:00
4:53 PM,81.0,64.9,58,29.98,10.0,NE,11.5,-,N/A,,Scattered Clouds,40,2011-10-18 02:53:00
5:53 PM,80.1,64.9,60,30.00,10.0,ENE,9.2,-,N/A,,Scattered Clouds,70,2011-10-18 03:53:00
6:53 PM,78.1,66.0,66,30.03,10.0,East,9.2,-,N/A,,Scattered Clouds,90,2011-10-18 04:53:00
7:53 PM,77.0,66.0,69,30.05,10.0,East,3.5,-,N/A,,Partly Cloudy,90,2011-10-18 05:53:00
8:53 PM,77.0,66.9,71,30.07,10.0,NNE,9.2,-,N/A,,Scattered Clouds,30,2011-10-18 06:53:00
9:53 PM,77.0,68.0,74,30.06,10.0,ENE,4.6,-,N/A,,Mostly Cloudy,70,2011-10-18 07:53:00
10:53 PM,77.0,66.9,71,30.05,10.0,ENE,6.9,-,N/A,,Mostly Cloudy,60,2011-10-18 08:53:00
11:53 PM,75.0,66.0,73,30.05,10.0,Calm,Calm,-,N/A,,Scattered Clouds,0,2011-10-18 09:53:00